Date,TemperatureHighF,TemperatureAvgF,TemperatureLowF,DewpointHighF,DewpointAvgF,DewpointLowF,HumidityHigh,HumidityAvg,HumidityLow,PressureMaxIn,PressureMinIn,WindSpeedMaxMPH,WindSpeedAvgMPH,GustSpeedMaxMPH,PrecipitationSumIn
2013-1-1,37,30,11,12,0,-12,39,27,21,0.00,0.00,13,2,13,0.00
2013-1-2,33,18,1,0,-9,-20,42,30,20,0.00,0.00,18,3,18,0.00
2013-1-3,22,11,-2,-2,-16,-28,40,28,22,0.00,0.00,9,2,9,0.00
2013-1-4,38,31,18,10,3,-4,52,30,21,0.00,0.00,20,5,20,0.00
2013-1-5,40,30,19,10,4,-3,59,34,21,0.00,0.00,18,3,18,0.00
2013-1-6,44,33,22,19,10,4,69,40,20,0.00,0.00,13,3,13,0.00
2013-1-7,37,30,17,20,8,1,63,42,22,0.00,0.00,17,2,17,0.00
2013-1-8,47,32,17,17,10,4,67,41,19,0.00,0.00,15,3,15,0.00
2013-1-9,46,32,16,23,14,5,76,50,20,0.00,0.00,20,3,20,0.00
2013-1-10,45,40,30,10,5,1,41,24,20,0.00,0.00,29,5,29,0.00
2013-1-11,37,32,22,32,17,7,85,57,30,0.00,0.00,10,1,10,0.12
2013-1-12,45,40,35,42,36,31,93,88,77,0.00,0.00,10,1,10,0.00
2013-1-13,45,43,38,44,42,37,98,96,93,0.00,0.00,12,2,12,0.00
2013-1-14,52,44,35,51,28,6,98,61,25,0.00,0.00,17,2,17,0.04
2013-1-15,37,34,28,12,5,1,44,30,22,0.00,0.00,11,2,11,0.00
2013-1-16,33,31,28,28,21,4,82,69,30,0.00,0.00,6,0,6,0.00
2013-1-17,40,30,24,30,14,-8,84,55,24,0.00,0.00,15,2,15,0.24
2013-1-18,26,22,17,-8,-10,-14,28,23,21,0.00,0.00,15,4,15,0.00
2013-1-19,46,34,24,14,2,-9,51,26,20,0.00,0.00,17,4,17,0.00
2013-1-20,50,39,26,10,4,-8,31,22,16,0.00,0.00,24,7,24,0.00
2013-1-21,27,23,16,11,-3,-11,63,34,21,0.00,0.00,15,2,15,0.00
2013-1-22,21,16,10,11,-11,-20,65,30,22,0.00,0.00,22,6,22,0.00
2013-1-23,16,9,1,-15,-20,-28,24,24,23,0.00,0.00,17,4,17,0.00
2013-1-24,21,9,-2,-12,-20,-30,24,24,22,0.00,0.00,21,4,21,0.00
2013-1-25,20,14,7,-2,-14,-22,46,27,22,0.00,0.00,8,2,8,0.00
2013-1-26,25,15,9,-3,-10,-17,46,33,21,0.00,0.00,17,3,17,0.00
2013-1-27,32,17,2,3,-13,-24,54,25,20,0.00,0.00,13,1,13,0.00
2013-1-28,34,25,13,27,10,-12,77,55,22,0.00,0.00,10,2,10,0.00
2013-1-29,46,37,33,33,28,19,87,71,39,0.00,0.00,13,2,13,0.04
2013-1-30,59,48,37,53,44,33,96,87,65,0.00,0.00,13,3,13,0.24
2013-1-31,59,43,27,55,17,-6,91,42,18,0.00,0.00,28,8,28,0.94
2013-2-1,29,26,21,8,-6,-12,52,24,20,0.00,0.00,20,6,20,0.00
2013-2-5,26,26,26,14,13,13,59,58,57,0.00,0.00,4,1,4,0.00
2013-2-6,37,29,22,20,5,-11,75,41,19,0.00,0.00,15,4,15,0.00
2013-2-7,33,23,13,-3,-9,-15,39,24,20,0.00,0.00,10,2,10,0.00
2013-2-8,31,28,25,22,11,-7,76,52,23,0.00,0.00,12,1,12,0.00
2013-2-9,28,22,14,18,0,-16,77,43,21,0.00,0.00,28,5,28,0.00
2013-2-10,33,16,0,-4,-14,-28,34,25,20,0.00,0.00,9,2,9,0.00
2013-2-11,42,34,15,38,23,-10,87,68,21,0.00,0.00,11,3,11,0.16
2013-2-12,42,38,34,33,10,3,87,34,21,0.00,0.00,18,5,18,0.00
2013-2-13,44,35,24,11,5,-1,53,30,18,0.00,0.00,8,1,8,0.00
2013-2-14,45,34,25,11,5,0,43,29,20,0.00,0.00,10,2,10,0.00
2013-2-15,53,41,33,14,8,1,42,25,18,0.00,0.00,13,3,13,0.00
2013-2-16,36,30,25,21,3,-9,63,34,20,0.00,0.00,14,3,14,0.00
2013-2-17,28,22,15,-7,-11,-15,24,22,21,0.00,0.00,28,7,28,0.00
2013-2-18,34,22,12,-2,-10,-18,39,24,20,0.00,0.00,17,4,17,0.00
2013-2-19,43,34,25,32,10,-9,82,42,20,0.00,0.00,17,4,17,0.20
2013-2-20,36,28,23,28,-1,-10,73,29,20,0.00,0.00,28,8,28,0.00
2013-2-21,30,24,21,-2,-6,-9,34,26,20,0.00,0.00,22,4,22,0.00
2013-2-22,37,29,21,10,3,-2,43,34,22,0.00,0.00,17,2,17,0.00
2013-2-23,38,35,32,32,22,10,79,61,39,0.00,0.00,10,2,10,0.00
2013-2-24,41,36,31,34,21,4,88,61,27,0.00,0.00,12,2,12,0.12
2013-2-25,43,35,24,23,9,3,67,35,20,0.00,0.00,14,2,14,0.00
2013-2-26,45,36,27,24,10,3,67,37,20,0.00,0.00,15,4,15,0.00
2013-2-27,46,39,33,37,27,12,87,63,39,0.00,0.00,23,3,23,0.67
2013-2-28,44,38,34,41,28,20,89,70,40,0.00,0.00,9,1,9,0.04
2013-3-1,43,37,33,24,13,4,63,38,21,0.00,0.00,15,3,15,0.00
2013-3-2,36,32,26,10,6,2,45,33,24,0.00,0.00,15,3,15,0.00
2013-3-3,32,28,24,11,1,-5,44,31,23,0.00,0.00,14,4,14,0.00
2013-3-4,38,31,26,6,2,-2,40,29,21,0.00,0.00,19,4,19,0.00
2013-3-5,43,35,29,11,5,1,39,29,20,0.00,0.00,17,4,17,0.00
2013-3-6,45,36,31,20,11,6,52,37,25,0.00,0.00,24,4,24,0.00
2013-3-7,36,34,31,26,15,6,78,50,30,0.00,0.00,17,3,17,0.00
2013-3-8,38,33,30,29,20,7,86,65,29,0.00,0.00,23,6,23,0.08
2013-3-9,51,38,28,12,6,-1,48,26,16,0.00,0.00,17,4,17,0.00
2013-3-10,54,39,20,17,11,4,73,36,18,0.00,0.00,14,3,14,0.00
2013-3-11,52,44,35,32,22,15,64,44,23,0.00,0.00,13,4,13,0.00
2013-3-12,55,50,40,50,40,22,84,68,48,0.00,0.00,12,1,13,1.02
2013-3-13,47,39,32,22,10,2,50,32,17,0.00,0.00,15,2,15,0.00
2013-3-14,33,29,25,15,-5,-9,50,23,20,0.00,0.00,20,7,20,0.00
2013-3-15,39,32,20,15,0,-10,42,26,18,0.00,0.00,19,5,19,0.00
2013-3-16,37,32,26,15,2,-7,51,29,19,0.00,0.00,17,3,17,0.00
2013-3-17,36,29,21,8,-4,-9,41,24,19,0.00,0.00,18,3,18,0.00
2013-3-18,36,28,15,18,-2,-15,65,29,19,0.00,0.00,14,2,14,0.00
2013-3-19,38,33,28,31,25,17,80,73,63,0.00,0.00,10,1,10,0.08
2013-3-20,40,31,22,20,6,-3,65,38,18,0.00,0.00,18,3,18,0.08
2013-3-21,38,28,19,15,2,-9,69,38,19,0.00,0.00,16,2,16,0.04
2013-3-22,37,27,17,6,1,-8,56,35,19,0.00,0.00,15,3,15,0.00
2013-3-26,45,45,45,6,6,6,20,20,20,0.00,40.00,9,9,9,0.00
2013-3-28,35,35,35,14,14,14,40,40,40,0.00,40.00,0,0,0,0.00
2013-3-29,51,44,30,16,8,5,55,24,19,0.00,0.00,11,4,11,0.00
2013-3-30,56,41,27,25,12,-1,75,36,16,0.00,0.00,13,3,13,0.00
2013-3-31,58,41,24,35,15,5,70,38,17,0.00,0.00,23,3,23,0.12
2013-4-1,59,43,32,41,20,-4,86,48,17,0.00,0.00,23,4,23,0.00
2013-4-2,39,33,27,4,-2,-7,34,21,19,0.00,0.00,24,8,24,0.00
2013-4-3,43,34,29,2,-2,-6,30,20,18,0.00,0.00,20,6,20,0.00
2013-4-4,55,40,23,12,3,-8,38,22,16,0.00,0.00,13,3,13,0.00
2013-4-5,58,46,37,14,6,-1,21,19,16,0.00,0.00,23,5,23,0.00
2013-4-6,50,37,28,9,0,-6,32,20,16,0.00,0.00,18,5,18,0.00
2013-4-7,59,46,28,26,12,-2,40,25,17,0.00,0.00,22,5,22,0.00
2013-4-8,50,46,42,33,23,14,63,41,24,0.00,0.00,15,2,15,0.00
2013-4-20,62,47,38,55,26,-1,79,49,17,0.00,0.00,22,4,22,0.39
2013-4-21,50,40,31,10,3,-2,31,22,16,0.00,0.00,21,4,21,0.39
2013-4-22,53,38,30,16,9,4,49,31,18,0.00,0.00,15,2,15,0.00
2013-4-23,52,41,29,26,18,11,64,40,27,0.00,0.00,10,1,10,0.39
2013-4-24,76,54,33,40,25,16,83,40,13,0.00,0.00,17,3,17,0.39
2013-4-25,61,52,38,45,15,6,65,25,16,0.00,0.00,17,4,17,0.39
2013-4-26,60,47,31,24,14,5,64,29,17,0.00,0.00,16,3,16,0.39
2013-4-27,68,46,31,25,13,4,60,29,15,0.00,0.00,13,2,13,0.00
2013-4-28,74,56,35,28,19,11,67,28,13,0.00,0.00,15,3,15,0.00
2013-4-29,58,54,50,46,26,10,75,36,18,0.00,0.00,10,2,10,0.00
2013-4-30,71,59,49,38,21,8,62,25,14,0.00,0.00,13,2,13,0.00
2013-5-1,75,58,36,22,18,7,53,23,13,0.00,0.00,11,2,11,0.00
2013-5-2,79,62,40,39,24,16,80,30,13,0.00,0.00,17,2,17,0.00
2013-5-3,70,59,44,24,16,8,38,19,14,0.00,0.00,15,4,15,0.00
2013-5-4,76,58,39,43,25,16,83,36,13,0.00,0.00,15,3,15,0.00
2013-5-5,74,56,37,37,22,12,82,33,13,0.00,0.00,10,2,10,0.00
2013-5-6,74,57,38,40,26,16,83,36,13,0.00,0.00,9,2,9,0.00
2013-5-7,79,63,45,54,32,20,87,40,13,0.00,0.00,10,2,10,0.00
2013-5-8,68,62,54,55,46,38,81,58,34,0.00,0.00,15,2,15,0.16
2013-5-9,64,57,48,54,47,38,91,70,39,0.00,0.00,6,1,6,0.12
2013-5-10,79,64,47,59,38,20,92,49,13,0.00,0.00,10,2,10,0.00
2013-5-11,70,64,58,60,53,36,82,67,35,0.00,0.00,10,2,10,0.43
2013-5-12,65,55,40,38,26,6,57,33,16,0.00,0.00,19,2,19,0.00
2013-5-13,53,44,34,36,15,6,76,36,18,0.00,0.00,13,2,13,0.00
2013-5-14,60,45,31,32,18,7,83,41,17,0.00,0.00,12,2,12,0.00
2013-5-15,68,51,31,40,27,11,81,44,17,0.00,0.00,19,2,19,0.04
2013-5-16,82,66,46,52,30,15,89,37,12,0.00,0.00,18,4,18,0.00
2013-5-17,70,59,46,35,19,13,58,23,15,0.00,0.00,17,3,17,0.00
2013-5-18,71,57,41,42,28,17,80,39,14,0.00,0.00,12,1,12,0.00
2013-5-19,59,56,52,52,47,36,81,71,51,0.00,0.00,8,1,8,0.08
2013-5-20,83,68,57,58,47,34,88,54,19,0.00,0.00,8,1,8,0.00
2013-5-21,91,76,62,63,48,30,87,46,12,0.00,0.00,15,2,15,0.00
2013-5-22,79,70,63,62,54,45,81,59,32,0.00,0.00,15,2,15,0.24
2013-5-23,75,69,66,63,56,41,83,64,36,0.00,0.00,10,2,10,0.39
2013-5-24,67,54,43,61,44,28,86,71,40,0.00,0.00,17,3,17,0.43
2013-5-25,50,46,43,37,28,15,75,51,27,0.00,0.00,26,5,26,0.16
2013-5-26,60,51,40,33,17,10,72,27,17,0.00,0.00,24,4,24,0.00
2013-5-27,76,56,37,35,24,14,83,38,13,0.00,0.00,21,2,21,0.00
2013-5-28,70,56,41,51,35,16,78,53,14,0.00,0.00,11,1,11,0.04
2013-5-29,83,68,58,61,51,34,88,62,22,0.00,0.00,23,2,23,1.57
2013-5-30,92,75,59,66,50,30,91,53,12,0.00,0.00,11,1,11,0.00
2013-5-31,93,78,62,67,46,28,90,45,12,0.00,0.00,11,1,11,0.00
2013-6-1,92,78,65,60,43,30,77,33,12,0.00,0.00,15,2,15,0.00
2013-6-2,89,76,69,63,50,38,70,42,18,0.00,0.00,24,2,24,0.35
2013-6-3,76,68,56,62,43,23,82,45,20,0.00,0.00,12,2,12,0.08
2013-6-4,73,60,48,32,22,15,53,25,14,0.00,0.00,13,2,13,0.00
2013-6-5,74,62,46,36,24,17,60,27,13,0.00,0.00,8,1,8,0.00
2013-6-6,70,60,50,51,37,26,79,46,19,0.00,0.00,13,2,13,0.08
2013-6-7,60,58,57,54,52,50,85,80,73,0.00,0.00,8,1,8,1.61
2013-6-8,76,63,55,52,44,31,85,55,21,0.00,0.00,11,2,11,0.35
2013-6-9,80,66,53,59,40,24,89,48,15,0.00,0.00,9,1,9,0.00
2013-6-10,68,62,55,60,54,49,84,77,66,0.00,0.00,10,0,10,1.10
2013-6-11,78,67,61,63,49,33,88,58,23,0.00,0.00,22,2,22,0.39
2013-6-12,73,65,55,50,30,19,80,30,14,0.00,0.00,20,4,20,0.00
2013-6-13,59,56,51,54,50,46,87,80,73,0.00,0.00,10,1,10,1.57
2013-6-14,74,61,52,54,42,20,83,56,13,0.00,0.00,12,2,12,0.47
2013-6-15,80,64,48,56,34,19,85,44,12,0.00,0.00,10,1,10,0.00
2013-6-16,74,64,49,55,40,27,86,49,18,0.00,0.00,10,1,10,0.00
2013-6-17,85,68,56,65,46,22,90,55,11,0.00,0.00,16,2,16,0.08
2013-6-18,72,62,58,59,49,35,86,64,35,0.00,0.00,14,2,14,0.28
2013-6-19,73,62,51,45,30,17,72,36,14,0.00,0.00,12,2,12,0.00
2013-6-20,81,64,46,53,33,20,83,40,12,0.00,0.00,9,1,9,0.00
2013-6-21,83,71,58,48,39,32,63,34,19,0.00,0.00,9,1,9,0.00
2013-6-22,85,73,61,46,37,27,54,29,13,0.00,0.00,11,2,11,0.00
2013-6-23,90,78,66,52,42,30,47,30,12,0.00,0.00,11,2,11,0.00
2013-6-24,91,76,65,63,52,35,78,47,15,0.00,0.00,16,1,16,0.00
2013-6-25,91,76,64,66,52,35,89,50,15,0.00,0.00,14,1,14,0.00
2013-6-26,82,75,68,65,55,39,82,54,22,0.00,0.00,9,1,9,0.00
2013-6-27,86,75,65,68,53,38,87,54,19,0.00,0.00,11,2,11,0.20
2013-6-28,84,76,68,66,52,38,83,49,21,0.00,0.00,13,2,13,0.75
2013-6-29,84,73,65,65,50,28,87,52,14,0.00,0.00,11,1,11,0.00
2013-6-30,85,72,65,66,58,41,87,65,23,0.00,0.00,9,1,9,0.87
2013-7-1,78,72,68,74,65,56,90,80,51,0.00,0.00,8,0,8,1.06
2013-7-2,85,77,72,68,59,48,83,58,28,0.00,0.00,8,2,9,0.04
2013-7-3,87,78,72,65,56,42,75,50,22,0.00,0.00,10,2,10,0.00
2013-7-4,90,81,73,68,52,40,80,42,19,0.00,0.00,11,2,11,0.00
2013-7-5,92,82,73,64,51,40,71,37,18,0.00,0.00,9,2,9,0.00
2013-7-6,92,82,73,69,53,37,77,42,15,0.00,0.00,10,1,10,0.00
2013-7-7,92,79,70,72,57,41,87,52,18,0.00,0.00,15,1,15,0.00
2013-7-8,88,76,68,65,53,34,85,51,18,0.00,0.00,11,1,11,0.55
2013-7-9,89,75,66,70,57,35,89,60,18,0.00,0.00,9,1,9,0.00
2013-7-10,84,77,71,69,59,49,80,56,32,0.00,0.00,11,1,11,0.51
2013-7-11,82,75,66,67,52,35,82,50,20,0.00,0.00,9,1,9,0.00
2013-7-12,82,73,66,46,40,30,45,31,17,0.00,0.00,12,2,12,0.00
2013-7-13,78,70,64,64,55,30,77,60,22,0.00,0.00,8,1,8,0.08
2013-7-14,90,79,71,70,56,39,86,53,18,0.00,0.00,8,1,8,0.00
2013-7-15,93,80,70,73,52,30,88,49,12,0.00,0.00,11,1,13,0.00
2013-7-16,93,80,68,65,46,30,77,35,12,0.00,0.00,10,1,10,0.00
2013-7-17,94,81,68,70,51,31,85,46,11,0.00,0.00,7,1,7,0.00
2013-7-18,96,83,71,70,52,31,84,43,11,0.00,0.00,17,1,17,0.00
2013-7-19,95,84,71,72,52,31,87,42,11,0.00,0.00,14,2,14,0.00
2013-7-20,89,80,68,68,52,38,71,40,18,0.00,0.00,9,2,9,0.24
2013-7-21,87,75,63,60,46,28,77,42,13,0.00,0.00,8,1,8,0.00
2013-7-22,84,73,66,68,53,39,85,53,21,0.00,0.00,11,1,11,0.16
2013-7-23,85,75,71,71,64,42,87,71,23,0.00,0.00,13,1,13,1.18
2013-7-24,77,70,59,68,46,26,88,50,18,0.00,0.00,13,2,13,0.00
2013-7-25,72,63,56,43,33,26,45,33,22,0.00,0.00,11,2,11,0.00
2013-7-26,80,68,62,55,37,25,73,35,15,0.00,0.00,11,2,11,0.00
2013-7-27,83,71,56,63,43,27,85,45,14,0.00,0.00,10,1,10,0.00
2013-7-28,77,68,64,68,57,45,84,69,37,0.00,0.00,10,0,10,0.47
2013-7-29,82,74,66,68,46,22,87,49,12,0.00,0.00,10,1,10,0.00
2013-9-20,67,62,59,49,42,38,67,49,37,0.00,0.00,8,1,8,0.00
2013-9-21,73,64,56,61,46,33,81,55,28,0.00,0.00,13,2,13,0.16
2013-9-22,67,60,52,61,33,14,82,44,16,0.00,0.00,13,3,13,0.51
2013-9-23,62,52,41,34,20,11,68,31,16,0.00,0.00,17,3,17,0.00
2013-9-24,69,53,36,40,24,14,74,37,15,0.00,0.00,13,2,13,0.00
2013-9-25,71,54,38,46,30,17,79,47,14,0.00,0.00,9,1,9,0.00
2013-9-26,66,57,48,49,32,20,77,42,18,0.00,0.00,13,2,13,0.00
2013-9-27,65,56,48,44,34,23,74,46,23,0.00,0.00,10,1,10,0.00
2013-9-28,73,56,44,49,35,18,85,54,14,0.00,0.00,8,1,8,0.00
2013-9-29,74,56,42,48,36,20,85,58,13,0.00,0.00,8,1,8,0.00
2013-9-30,74,57,43,51,36,18,85,55,13,0.00,0.00,8,1,8,0.00
2013-10-1,78,58,43,53,39,21,86,57,13,0.00,0.00,8,0,8,0.00
2013-10-2,81,63,50,59,43,25,89,57,14,0.00,0.00,8,1,8,0.00
2013-10-3,77,60,45,53,38,20,83,54,13,0.00,0.00,6,0,6,0.00
2013-10-4,74,61,53,58,46,34,82,62,23,0.00,0.00,8,1,8,0.00
2013-10-5,68,62,58,57,50,42,87,68,41,0.00,0.00,7,1,7,0.04
2013-10-6,62,59,56,58,51,48,89,74,62,0.00,0.00,8,1,8,0.63
2013-10-7,75,65,53,60,52,38,78,65,33,0.00,0.00,26,2,26,0.83
2013-10-8,65,53,43,46,28,14,84,47,15,0.00,0.00,15,2,15,0.00
2013-10-9,64,50,38,40,29,14,81,52,16,0.00,0.00,10,1,10,0.00
2013-10-10,56,48,39,43,32,27,82,56,35,0.00,0.00,8,0,8,0.00
2013-10-11,72,57,46,40,30,15,71,42,14,0.00,0.00,12,1,12,0.00
2013-10-12,72,57,43,42,32,20,79,45,14,0.00,0.00,16,2,16,0.00
2013-10-13,68,57,45,46,29,18,77,39,15,0.00,0.00,10,1,10,0.00
2013-10-14,69,54,41,48,32,18,87,51,15,0.00,0.00,7,1,7,0.00
2013-10-15,71,60,49,49,36,20,73,45,22,0.00,0.00,8,1,8,0.00
2013-10-16,61,55,46,43,35,24,71,48,27,0.00,0.00,8,1,8,0.00
2013-10-17,75,64,58,54,40,19,73,46,13,0.00,0.00,11,2,11,0.00
2013-10-18,67,59,42,56,28,11,76,36,15,0.00,0.00,17,4,17,0.04
2013-10-19,66,51,37,43,26,14,80,45,15,0.00,0.00,15,1,15,0.04
2013-10-20,61,50,37,43,25,10,76,44,16,0.00,0.00,17,2,17,0.00
2013-10-21,39,39,38,31,30,24,72,70,65,0.00,0.00,0,0,0,0.00
2013-10-25,50,42,33,24,11,5,63,30,19,0.00,0.00,10,2,10,0.00
2013-10-26,54,43,29,30,15,8,79,39,18,0.00,0.00,15,3,15,0.00
2013-10-27,55,46,32,19,10,4,56,24,17,0.00,0.00,19,3,19,0.00
2013-10-28,58,43,28,30,14,3,79,39,17,0.00,0.00,12,2,12,0.00
2013-10-29,49,39,29,15,5,-1,52,25,16,0.00,0.00,10,2,10,0.00
2013-10-30,59,43,30,29,16,8,75,37,17,0.00,0.00,8,2,8,0.00
2013-10-31,60,49,34,55,44,27,91,82,64,0.00,0.00,11,2,11,0.31
2013-11-1,70,62,50,53,36,15,77,43,14,0.00,0.00,23,3,23,0.31
2013-11-2,66,51,39,44,26,14,84,44,15,0.00,0.00,15,1,15,0.00
2013-11-3,48,38,28,27,8,-7,44,29,20,0.00,0.00,17,4,17,0.00
2013-11-4,42,32,25,10,1,-7,49,27,18,0.00,0.00,14,2,14,0.00
2013-11-5,54,41,25,21,11,2,53,32,18,0.00,0.00,10,2,10,0.00
2013-11-6,58,50,38,32,24,16,68,38,19,0.00,0.00,14,3,14,0.00
2013-11-7,57,50,35,50,32,11,77,51,29,0.00,0.00,11,2,11,0.24
2013-11-8,46,40,36,24,8,2,61,26,18,0.00,0.00,17,4,17,0.00
2013-11-9,46,39,29,18,9,3,57,30,20,0.00,0.00,8,1,8,0.00
2013-11-10,51,46,42,23,10,4,42,24,19,0.00,0.00,22,3,22,0.00
2013-11-11,50,46,40,12,7,4,28,20,19,0.00,0.00,13,2,13,0.00
2013-11-12,48,34,24,17,0,-8,39,24,19,0.00,0.00,17,3,17,0.00
2013-11-13,37,27,20,4,-2,-8,45,28,19,0.00,0.00,15,2,15,0.00
2013-11-14,55,40,28,12,3,-4,31,21,16,0.00,0.00,12,3,12,0.00
2013-11-15,61,43,24,16,6,-5,45,22,16,0.00,0.00,10,2,10,0.00
2013-11-16,60,44,33,34,16,2,77,36,17,0.00,0.00,10,2,10,0.00
2013-11-17,59,52,33,54,44,22,84,76,61,0.00,0.00,10,2,10,0.04
2013-11-18,63,56,46,53,24,4,76,33,16,0.00,0.00,26,5,26,0.28
2013-11-19,47,38,28,7,1,-3,31,20,18,0.00,0.00,29,5,29,0.00
2013-11-20,38,29,19,6,-2,-7,54,27,19,0.00,0.00,14,2,14,0.00
2013-11-21,46,32,15,18,7,-2,67,37,19,0.00,0.00,10,1,10,0.00
2013-11-22,52,46,40,42,32,15,81,59,34,0.00,0.00,10,1,10,0.12
2013-11-23,48,37,26,37,5,-9,66,26,18,0.00,0.00,18,5,18,0.00
2013-11-24,27,23,18,-4,-10,-13,35,23,21,0.00,0.00,28,6,28,0.00
2013-11-25,34,24,9,1,-6,-11,52,28,20,0.00,0.00,11,2,11,0.00
2013-11-26,34,32,27,28,12,-6,83,49,20,0.00,0.00,8,0,8,0.39
2013-11-27,48,38,33,46,28,6,91,72,30,0.00,0.00,13,2,13,1.38
2013-11-28,34,27,19,8,-4,-11,47,26,20,0.00,0.00,18,4,18,0.00
2013-11-29,33,26,20,5,-2,-9,45,31,20,0.00,0.00,10,2,10,0.00
2013-11-30,32,25,12,3,-5,-9,51,28,20,0.00,0.00,10,2,10,0.00
2013-12-1,43,35,29,16,10,2,52,36,20,0.00,0.00,6,1,6,0.00
2013-12-2,43,34,27,28,20,15,79,58,39,0.00,0.00,6,1,6,0.00
2013-12-3,43,31,26,33,22,14,86,69,40,0.00,0.00,6,1,6,0.00
2013-12-4,47,33,22,24,15,6,75,51,19,0.00,0.00,8,1,8,0.00
2013-12-5,54,47,38,50,39,19,88,74,42,0.00,0.00,12,2,12,0.12
2013-12-6,54,41,32,50,27,12,87,59,29,0.00,0.00,16,3,16,0.35
2013-12-7,38,32,26,24,10,-7,73,44,19,0.00,0.00,15,2,15,0.00
2013-12-8,30,25,17,13,4,-6,65,41,23,0.00,0.00,7,0,7,0.00
2013-12-9,33,30,26,30,23,7,86,76,44,0.00,0.00,8,1,8,0.00
2013-12-10,33,29,20,29,24,15,86,84,81,0.00,0.00,0,0,0,0.00
2013-12-11,28,22,16,16,7,-2,82,53,33,0.00,0.00,9,1,9,0.00
2013-12-12,25,16,8,3,-7,-14,58,38,22,0.00,0.00,10,1,10,0.00
2013-12-13,31,22,15,1,-8,-13,35,25,20,0.00,0.00,18,4,18,0.00
2013-12-14,20,13,10,3,-9,-13,58,36,22,0.00,0.00,10,3,10,0.00
2013-12-15,32,24,15,21,11,0,72,58,28,0.00,0.00,15,2,15,0.00
2013-12-16,29,22,4,7,-9,-24,42,24,21,0.00,0.00,21,5,21,0.00
2013-12-17,19,10,-3,8,-11,-31,61,40,24,0.00,0.00,5,0,5,0.00
2013-12-18,34,22,5,9,2,-8,57,43,25,0.00,0.00,8,1,8,0.00
2013-12-19,43,33,26,15,4,-1,52,29,18,0.00,0.00,13,2,13,0.08
2013-12-20,50,40,29,17,10,5,56,32,19,0.00,0.00,10,3,10,0.08
2013-12-21,57,48,38,41,18,6,83,32,19,0.00,0.00,11,4,11,0.00
2013-12-22,65,57,40,58,43,30,90,62,35,0.00,0.00,15,3,15,0.00
2013-12-23,59,45,35,46,32,4,81,62,27,0.00,0.00,14,2,14,0.35
2013-12-24,35,29,21,10,-1,-12,37,27,20,0.00,0.00,15,4,15,0.00
2013-12-25,23,18,13,-6,-13,-17,36,24,22,0.00,0.00,13,3,13,0.00
2013-12-26,31,26,18,14,3,-12,58,38,25,0.00,0.00,10,3,10,0.00
2013-12-27,37,27,19,16,6,-2,72,42,22,0.00,0.00,12,2,12,0.00
2013-12-28,49,34,22,17,8,1,66,37,17,0.00,0.00,15,4,15,0.00
2013-12-29,45,35,26,32,22,4,81,61,20,0.00,0.00,13,3,13,0.91
2013-12-30,36,28,14,32,7,-15,86,46,20,0.00,0.00,17,2,17,0.00
2013-12-31,26,18,10,8,-7,-14,59,32,21,0.00,0.00,17,2,17,0.00
2014-1-1,30,22,15,5,-7,-13,52,28,20,0.00,0.00,11,2,11,0.00
2014-1-2,19,8,0,4,-7,-15,53,49,48,0.00,0.00,15,4,15,0.00